User: anonymous   Login
Location: Contre
(49.7477°N, 2.0963°E)
Time: 03:01:11
(UTC+00:00)
Language:

DMSP B5D2-2 - Orbit

View from above orbital plane
View from above orbital plane
View from above satellite
View from above satellite

Ground track
Ground track

The orbit data is extracted from the following two-line orbital elements,

1 14506U 83113A   24170.91129601  .00000386  00000-0  16892-3 0  9991
2 14506  98.3309 333.2491 0010224 217.4565 260.3614 14.28939567111441
Epoch (UTC): 18 June 2024 21:52:15
Eccentricity: 0.0010224
inclination: 98.3309°
perigee height: 788 km
apogee height: 802 km
right ascension of ascending node: 333.2491°
argument of perigee: 217.4565°
revolutions per day: 14.28939567
mean anomaly at epoch: 260.3614°
orbit number at epoch: 11144

The dashed part of the orbit path shows where the satellite is in the earth's shadow,  

DLR